Leadville, CO

7:57 PM MST on November 20, 2017 (GMT -0700)
Lake County

Weather History for KLXV - October, 2012

Change the Weather History Date:

Sunday, October 21, 2012

  Actual Average Record
Temperature  
Mean Temperature 40 °F -  
Max Temperature 56 °F 48 °F 68 °F (2003)
Min Temperature 24 °F 22 °F 3 °F (1990)
Degree Days  
Heating Degree Days 25 30  
Month to date heating degree days 527 567  
Since 1 July heating degree days 1633 1865  
Cooling Degree Days 0 0  
Month to date cooling degree days 0 0  
Year to date cooling degree days 0 0  
Moisture  
Dew Point 15 °F    
Average Humidity 39    
Maximum Humidity 59    
Minimum Humidity 18    
Precipitation  
Precipitation 0.00 in 0.03 in 0.16 in (1986)
Month to date precipitation 0.59 0.61  
Year to date precipitation 9.98 10.64  
Sea Level Pressure  
Sea Level Pressure 29.75 in    
Wind  
Wind Speed 5 mph (ESE)    
Max Wind Speed 20 mph    
Max Gust Speed 25 mph    
Visibility 10 miles    
Events      
T = Trace of Precipitation, MM = Missing Value Source: NWS Daily Summary

Daily Weather History Graph

Daily Weather History Graph

Search for Another Location

Airport or City:

Trip Planner

Search our weather history database for the weather conditions in past years. The results will help you decide how hot, cold, wet, or windy it might be!

Date:

Astronomy

Oct. 21, 2012 Rise Set
Actual Time 7:21 AM MDT 6:17 PM MDT
Civil Twilight 6:54 AM MDT 6:44 PM MDT
Nautical Twilight 6:23 AM MDT 7:15 PM MDT
Astronomical Twilight 5:52 AM MDT 7:46 PM MDT
Moon 1:43 PM MDT No Moon Set
Length of Visible Light 11h 49m
Length of Day
10h 55m
Waxing Crescent, 46% of the Moon is Illuminated
Oct 21
Waxing Crescent
Oct 21
First Quarter
Oct 29
Full
Nov 6
Last Quarter
Nov 13
New

Hourly Weather History & Observations

Time (MDT) Temp. Windchill Dew Point Humidity Pressure Visibility Wind Dir Wind Speed Gust Speed Precip Events Conditions
12:53 AM 28.9 °F 25.2 °F 12.9 °F 51% 29.72 in 10.0 mi Variable 3.5 mph - N/A   Clear
1:53 AM 32.0 °F 28.7 °F 10.0 °F 40% 29.68 in 10.0 mi NE 3.5 mph - N/A   Clear
2:53 AM 33.1 °F 30.0 °F 10.9 °F 40% 29.67 in 10.0 mi East 3.5 mph - N/A   Clear
3:53 AM 28.9 °F - 10.9 °F 47% 29.72 in 10.0 mi Calm Calm - N/A   Clear
4:53 AM 27.0 °F 21.6 °F 10.9 °F 51% 29.74 in 10.0 mi NE 4.6 mph - N/A   Clear
5:53 AM 28.0 °F - 10.0 °F 47% 29.77 in 10.0 mi Calm Calm - N/A   Clear
6:53 AM 26.1 °F - 10.9 °F 53% 29.82 in 10.0 mi Calm Calm - N/A   Clear
7:53 AM 28.0 °F - 14.0 °F 56% 29.86 in 10.0 mi Calm Calm - N/A   Clear
8:53 AM 37.0 °F - 15.1 °F 41% 29.81 in 10.0 mi Calm Calm - N/A   Clear
9:53 AM 45.0 °F - 16.0 °F 31% 29.76 in 10.0 mi Calm Calm - N/A   Clear
10:53 AM 48.0 °F - 14.0 °F 26% 29.77 in 10.0 mi SSE 4.6 mph - N/A   Clear
11:53 AM 51.1 °F - 17.1 °F 26% 29.72 in 10.0 mi SSE 9.2 mph - N/A   Clear
12:53 PM 52.0 °F - 18.0 °F 26% 29.74 in 10.0 mi South 5.8 mph - N/A   Clear
1:53 PM 54.0 °F - 17.1 °F 23% 29.68 in 10.0 mi South 17.3 mph 23.0 mph N/A   Clear
2:53 PM 55.0 °F - 16.0 °F 22% 29.65 in 10.0 mi South 12.7 mph 20.7 mph N/A   Clear
3:53 PM 55.0 °F - 12.9 °F 19% 29.69 in 10.0 mi WSW 6.9 mph - N/A   Clear
4:53 PM 54.0 °F - 17.1 °F 23% 29.71 in 10.0 mi South 13.8 mph - N/A   Clear
5:53 PM 51.1 °F - 17.1 °F 26% 29.75 in 10.0 mi West 4.6 mph - N/A   Clear
6:53 PM 42.1 °F 38.4 °F 18.0 °F 38% 29.84 in 10.0 mi ENE 5.8 mph - N/A   Clear
7:53 PM 37.9 °F 32.7 °F 18.0 °F 45% 29.87 in 10.0 mi NE 6.9 mph - N/A   Clear
8:53 PM 37.9 °F 33.5 °F 18.0 °F 45% 29.81 in 10.0 mi NE 5.8 mph - N/A   Clear
9:53 PM 37.9 °F 33.5 °F 19.0 °F 47% 29.78 in 10.0 mi NNE 5.8 mph - N/A   Overcast
10:53 PM 39.0 °F - 19.0 °F 45% 29.74 in 10.0 mi Calm Calm - N/A   Partly Cloudy
11:53 PM 32.0 °F - 19.0 °F 59% 29.77 in 10.0 mi Calm Calm - N/A   Clear